Location: Pianadetto
(44.4000°N, 10.1000°E)
Time: 20:40:51
(UTC+00:00)

Cosmos 2074 Rocket - Pass Details

Date: 26 May 2022
Orbit: 968 x 985 km, 82.9° (Epoch: 04 July)

Event Time Altitude Azimuth Distance (km) Brightness Sun altitude
Rises 01:20:51 0° 350° (N) 3,700 7.8 -18.6°
Reaches altitude 10° 01:23:23 10° 349° (N) 2,749 7.0 -18.4°
Maximum altitude 01:29:40 78° 265° (W) 1,012 4.0 -17.8°
Enters shadow 01:34:01 21° 182° (S) 2,034 5.2 -17.4°
